CAPE
0 0 0 0 0 0 0 0 0 0 0 0 0 0 0 0 0 0 0 0 0 0 0 0 0 0 0 0 0 0 0 0 1 0 0 0 0 0 0 0 0 0 0
0 0 0 0 0 0 0 0 0 0 0 0 0 0 0 0 0 0 0 0 0 0 0 0 0 0 0 0 0 0 0 0 1 1 0 0 0 0 0 0 0 0 0
0 0 0 0 0 0 0 0 0 0 0 0 0 0 0 0 0 0 0 0 0 0 0 0 0 0 0 0 0 0 0 0 0 0 0 0 0 0 0 0 0 0 0
0 0 0 0 0 0 0 0 0 0 0 0 0 0 0 0 0 0 0 0 0 0 0 0 0 0 0 0 0 0 0 0 0 0 0 0 0 0 0 0 0 0 0
0 0 0 0 0 0 0 0 0 0 0 0 0 0 0 0 0 0 0 0 0 0 0 0 0 0 0 0 0 0 0 0 0 0 0 0 0 0 1 0 0 0 0
0 0 0 0 0 0 0 0 0 0 0 0 0 0 0 0 0 1 0 0 0 0 0 0 0 0 0 1 2 1 0 0 0 0 0 1 0 0 0 0 0 0 0
0 0 0 0 0 0 0 0 0 0 0 0 0 0 0 0 1 2 4 0 0 0 0 0 0 0 0 0 1 4 8 2 0 0 0 0 0 0 0 0 0 0 0
0 0 0 0 0 0 0 0 0 0 0 0 0 0 0 0 1 1 2 1 0 0 0 0 0 0 0 0 0 0 0 0 0 1 0 0 0 0 0 0 0 0 0
0 0 0 0 0 0 0 0 0 0 0 0 0 0 0 0 0 0 1 0 0 0 0 0 0 0 0 1 0 0 0 0 0 1 4 5 1 0 0 0 0 0 0
0 0 0 0 0 0 0 0 0 0 0 0 0 0 0 0 0 2 3 0 0 0 0 0 0 0 0 1 0 0 0 0 0 0 0 0 0 0 4 1 0 0 0
0 0 0 0 0 0 0 0 0 0 0 0 0 0 0 0 0 0 2 0 0 0 0 0 0 0 2 2 3 0 0 0 0 0 0 0 0 0 0 0 0 0 0
0 0 0 0 0 0 0 0 0 0 0 0 0 0 0 0 0 0 0 2 0 0 0 0 0 0 2 3 6 5 5 3 0 0 0 0 0 0 0 0 0 0 0
0 0 0 0 0 0 0 0 0 0 0 0 0 0 0 0 0 1 1 1 1 0 0 0 1 1 0 0 0 0 0 0 0 0 0 0 0 0 0 0 0 0 0
0 0 0 0 0 0 0 0 0 0 0 0 0 0 0 0 0 0 0 0 0 0 0 0 0 0 0 0 0 0 0 0 0 0 0 0 0 0 0 0 0 0 0
0 0 0 0 0 0 0 0 0 0 0 0 0 0 0 0 0 0 0 0 0 0 0 0 0 0 0 0 0 0 0 0 0 0 0 0 0 0 0 0 0 0 0
0 0 0 0 0 0 0 0 0 0 0 0 0 0 0 0 0 0 0 1 1 0 0 0 0 0 0 0 0 0 0 0 0 0 0 0 0 0 0 0 0 0 0
0 0 0 0 0 0 0 0 0 0 0 0 0 0 0 0 0 1 0 0 1 0 0 0 0 0 0 0 0 0 0 0 0 0 0 0 0 0 0 0 0 0 0
0 0 0 0 0 0 0 0 0 0 0 0 0 0 0 0 0 0 0 0 0 0 0 0 0 0 0 0 0 0 0 0 0 0 0 0 0 0 0 0 0 0 0
0 0 0 0 0 0 0 0 0 0 0 0 0 0 0 0 0 0 0 0 0 0 0 0 0 0 0 0 0 0 0 0 0 0 0 0 0 0 0 0 0 0 0
0 0 0 0 0 0 0 0 0 0 0 0 0 0 0 0 0 0 0 0 0 0 0 0 0 0 0 0 0 0 0 0 0 0 0 0 0 0 0 0 0 0 0
0 0 0 0 0 0 0 0 0 0 0 0 0 0 0 0 0 0 0 0 0 0 0 0 0 0 0 0 0 0 0 0 0 0 0 0 0 0 0 0 0 0 0
0 0 0 0 0 0 0 0 0 0 0 0 0 0 0 0 0 0 0 0 0 0 0 0 0 0 0 0 0 0 0 0 0 0 0 0 0 0 0 0 0 0 0
0 0 0 0 0 0 0 0 0 0 0 0 0 0 0 0 0 0 0 0 0 0 0 0 0 0 0 0 0 0 0 0 0 0 0 0 0 0 0 0 0 0 0
0 0 0 0 0 0 0 0 0 0 0 0 0 0 0 0 0 0 0 0 0 0 0 0 0 0 0 0 0 0 0 0 0 0 0 0 0 0 0 0 0 0 0
0 0 0 0 0 0 0 0 0 0 0 0 0 0 0 0 0 0 0 0 0 0 0 0 0 0 0 0 0 0 0 0 0 0 0 0 0 0 0 0 0 0 0
0 0 0 0 0 0 0 0 0 0 0 0 0 0 0 0 0 0 0 0 0 0 0 0 0 0 0 0 0 0 0 0 0 0 0 0 0 0 0 0 0 0 0
CIN
-0 -0 -0 -0 -0 -0 -0 -0 -0 -0 -0 -0 -0 -0 -0 -0 -0 -0 -0 -0 -0 -0 -0 -0 -0 -0 -0 -0 -0 -0 -0 -0 -0 -0 -0 -0 -0 -0 -0 -0 -0 -0 -0
-0 -0 -0 -0 -0 -0 -0 -0 -0 -0 -0 -0 -0 -0 -0 -0 -0 -0 -0 -0 -0 -0 -0 -0 -0 -0 -0 -0 -0 -0 -0 -0 -0 -0 -0 -0 -0 -0 -0 -0 -0 -0 -0
-0 -0 -0 -0 -0 -0 -0 -0 -0 -0 -0 -0 -0 -0 -0 -0 -0 -0 -0 -0 -0 -0 -0 -0 -0 -0 -0 -0 -0 -0 -0 -0 -0 -0 -0 -0 -0 -0 -0 -0 -0 -0 -0
-0 -0 -0 -0 -0 -0 -0 -0 -0 -0 -0 -0 -0 -0 -0 -0 -0 -0 -0 -0 -0 -0 -0 -0 -0 -0 -0 -0 -0 -0 -0 -0 -0 -0 -0 -0 -0 -0 -0 -0 -0 -0 -0
-0 -0 -0 -0 -0 -0 -0 -0 -0 -0 -0 -0 -0 -0 -0 -0 -0 -0 -0 -0 -0 -0 -0 -0 -0 -0 -0 -0 -0 -0 -0 -0 -0 -0 -0 -0 -0 -0 -0 -0 -0 -0 -0
-0 -0 -0 -0 -0 -0 -0 -0 -0 -0 -0 -0 -0 -0 -0 -0 -0 -0 -0 -0 -0 -0 -0 -0 -0 -0 -0 -0 -0 -0 -0 -0 -0 -0 -0 -0 -0 -0 -0 -0 -0 -0 -0
-0 -0 -0 -0 -0 -0 -0 -0 -0 -0 -0 -0 -0 -0 -0 -0 -0 -0 -0 -0 -0 -0 -0 -0 -0 -0 -0 -0 -0 -0 -0 -0 -0 -0 -0 -0 -0 -0 -0 -0 -0 -0 -0
-0 -0 -0 -0 -0 -0 -0 -0 -0 -0 -0 -0 -0 -0 -0 -0 -0 -0 -0 -0 -0 -0 -0 -0 -0 -0 -0 -0 -0 -0 -0 -0 -0 -2 -0 -0 -0 -0 -0 -0 -0 -0 -0
-0 -0 -0 -0 -0 -0 -0 -0 -0 -0 -0 -0 -0 -0 -0 -0 -0 -0 -0 -0 -0 -0 -0 -0 -0 -0 -0 -0 -0 -0 -0 -0 -0 -0 -0 -0 -0 -0 -0 -0 -0 -0 -0
-0 -0 -0 -0 -0 -0 -0 -0 -0 -0 -0 -0 -0 -0 -0 -0 -0 -0 -0 -0 -0 -0 -0 -0 -0 -0 -0 -0 -0 -0 -0 -0 -0 -0 -0 -0 -0 -1 -0 -1 -0 -0 -0
-0 -0 -0 -0 -0 -0 -0 -0 -0 -0 -0 -0 -0 -0 -0 -0 -0 -0 -0 -2 -0 -0 -0 -0 -0 -0 -0 -0 -0 -0 -0 -0 -0 -0 -0 -0 -0 -0 -0 -0 -0 -2 -2
-0 -0 -0 -0 -0 -0 -0 -0 -0 -0 -0 -0 -0 -0 -0 -0 -0 -0 -0 -0 -0 -0 -0 -0 -0 -0 -0 -0 -0 -0 -0 -0 -0 -0 -0 -0 -0 -0 -0 -0 -0 -0 -0
-0 -0 -0 -0 -0 -0 -0 -0 -0 -0 -0 -0 -0 -0 -0 -0 -0 -0 -0 -0 -0 -0 -0 -0 -0 -0 -0 -0 -0 -0 -0 -0 -0 -0 -0 -0 -0 -0 -0 -0 -0 -0 -0
-0 -0 -0 -0 -0 -0 -0 -0 -0 -0 -0 -0 -0 -0 -0 -0 -0 -0 -0 -0 -0 -0 -0 -0 -0 -0 -0 -0 -0 -0 -0 -0 -0 -0 -0 -0 -0 -0 -0 -0 -0 -0 -0
-0 -0 -0 -0 -0 -0 -0 -0 -0 -0 -0 -0 -0 -0 -0 -0 -0 -0 -0 -0 -0 -0 -0 -0 -0 -0 -0 -0 -0 -0 -0 -0 -0 -0 -0 -0 -0 -0 -0 -0 -0 -0 -0
-0 -0 -0 -0 -0 -0 -0 -0 -0 -0 -0 -0 -0 -0 -0 -0 -0 -0 -0 -0 -0 -0 -0 -0 -0 -0 -0 -0 -0 -0 -0 -0 -0 -0 -0 -0 -0 -0 -0 -0 -0 -0 -0
-0 -0 -0 -0 -0 -0 -0 -0 -0 -0 -0 -0 -0 -0 -0 -0 -0 -0 -0 -0 -1 -0 -0 -0 -0 -0 -0 -0 -0 -0 -0 -0 -0 -0 -0 -0 -0 -0 -0 -0 -0 -0 -0
-0 -0 -0 -0 -0 -0 -0 -0 -0 -0 -0 -0 -0 -0 -0 -0 -0 -0 -0 -0 -0 -0 -0 -0 -0 -0 -0 -0 -0 -0 -0 -0 -0 -0 -0 -0 -0 -0 -0 -0 -0 -0 -0
-0 -0 -0 -0 -0 -0 -0 -0 -0 -0 -0 -0 -0 -0 -0 -0 -0 -0 -0 -0 -0 -0 -0 -0 -0 -0 -0 -0 -0 -0 -0 -0 -0 -0 -0 -0 -0 -0 -0 -0 -0 -0 -0
-0 -0 -0 -0 -0 -0 -0 -0 -0 -0 -0 -0 -0 -0 -0 -0 -0 -0 -0 -0 -0 -0 -0 -0 -0 -0 -0 -0 -0 -0 -0 -0 -0 -0 -0 -0 -0 -0 -0 -0 -0 -0 -0
-0 -0 -0 -0 -0 -0 -0 -0 -0 -0 -0 -0 -0 -0 -0 -0 -0 -0 -0 -0 -0 -0 -0 -0 -0 -0 -0 -0 -0 -0 -0 -0 -0 -0 -0 -0 -0 -0 -0 -0 -0 -0 -0
-0 -0 -0 -0 -0 -0 -0 -0 -0 -0 -0 -0 -0 -0 -0 -0 -0 -0 -0 -0 -0 -0 -0 -0 -0 -0 -0 -0 -0 -0 -0 -0 -0 -0 -0 -0 -0 -0 -0 -0 -0 -0 -0
-0 -0 -0 -0 -0 -0 -0 -0 -0 -0 -0 -0 -0 -0 -0 -0 -0 -0 -0 -0 -0 -0 -0 -0 -0 -0 -0 -0 -0 -0 -0 -0 -0 -0 -0 -0 -0 -0 -0 -0 -0 -0 -0
-0 -0 -0 -0 -0 -0 -0 -0 -0 -0 -0 -0 -0 -0 -0 -0 -0 -0 -0 -0 -0 -0 -0 -0 -0 -0 -0 -0 -0 -0 -0 -0 -0 -0 -0 -0 -0 -0 -0 -0 -0 -0 -0
-0 -0 -0 -0 -0 -0 -0 -0 -0 -0 -0 -0 -0 -0 -0 -0 -0 -0 -0 -0 -0 -0 -0 -0 -0 -0 -0 -0 -0 -0 -0 -0 -0 -0 -0 -0 -0 -0 -0 -0 -0 -0 -0
-0 -0 -0 -0 -0 -0 -0 -0 -0 -0 -0 -0 -0 -0 -0 -0 -0 -0 -0 -0 -0 -0 -0 -0 -0 -0 -0 -0 -0 -0 -0 -0 -0 -0 -0 -0 -0 -0 -0 -0 -0 -0 -0
Wind_Speed
29 33 35 35 34 32 30 29 28 27 26 25 25 24 24 23 23 23 23 23 23 23 23 23 23 23 24 24 23 22 22 20 21 20 19 16 16 17 19 19 18 16 14
28 28 28 29 30 31 30 28 26 26 24 24 24 24 24 24 23 24 24 24 25 25 25 25 25 25 26 25 24 24 23 22 22 22 21 19 18 18 22 22 19 16 14
25 25 26 26 25 25 24 24 24 23 23 24 24 25 25 25 25 26 27 28 28 27 26 27 27 26 27 26 25 25 23 22 22 23 22 20 19 18 20 19 18 17 15
21 22 22 22 22 23 22 22 20 21 21 23 24 25 26 27 27 27 28 29 28 27 26 26 25 25 25 25 25 24 23 23 22 22 22 22 19 18 19 18 19 17 16
18 19 20 20 20 19 19 18 18 18 19 20 22 23 24 26 27 27 28 28 27 27 26 26 26 26 26 26 26 24 23 23 23 23 23 22 21 19 17 17 17 20 20
18 20 19 19 20 21 21 21 20 20 21 21 23 23 23 24 24 25 26 26 26 26 27 27 26 26 27 27 27 25 23 23 24 23 23 21 20 17 14 16 20 20 21
19 20 21 21 21 21 21 22 22 22 22 23 23 24 25 24 23 23 23 23 24 25 25 26 26 26 27 27 28 27 24 22 22 23 22 20 20 17 17 20 20 21 21
16 18 20 21 21 22 22 22 22 22 22 22 23 23 23 24 24 24 24 24 25 24 24 24 24 25 26 27 27 28 27 26 26 23 22 23 22 21 20 22 24 25 25
15 15 17 16 16 17 19 21 22 22 22 22 23 23 24 24 23 24 25 25 26 25 24 25 26 26 27 27 28 29 29 28 27 26 26 24 23 23 23 24 26 28 29
15 15 14 14 14 15 16 18 18 19 20 20 20 21 21 22 21 22 21 23 24 25 26 26 26 27 27 28 29 29 31 29 27 27 28 28 28 27 26 24 26 28 29
13 12 14 16 15 16 16 16 18 19 19 19 20 21 20 20 21 23 24 24 25 25 26 26 25 25 25 27 28 28 30 29 29 29 30 29 28 27 28 27 26 27 29
13 15 14 16 16 16 16 16 18 19 19 19 20 21 21 21 21 21 22 24 23 24 25 24 24 24 25 27 28 30 30 31 30 31 32 32 31 30 29 28 28 29 29
15 16 17 17 18 18 19 19 18 18 18 18 18 18 18 19 17 17 18 19 19 21 21 22 22 24 25 25 27 28 28 29 31 32 32 31 30 30 28 28 28 29 30
17 16 17 17 17 17 17 17 18 18 19 19 18 17 16 17 17 17 17 18 18 19 20 21 22 23 25 27 28 29 30 30 31 31 31 29 27 27 28 28 31 31 30
17 17 17 17 18 18 17 17 16 16 16 16 16 16 16 17 17 17 17 18 19 20 20 22 23 25 26 28 28 27 28 29 30 30 30 30 30 30 31 29 30 29 30
17 17 16 16 16 16 16 16 16 16 15 16 16 16 17 17 18 18 19 20 21 20 20 23 25 25 27 28 29 29 29 29 28 27 28 29 30 30 30 28 27 28 29
15 16 16 16 16 17 18 18 19 17 17 17 17 17 19 20 20 22 22 24 24 24 27 27 29 29 29 30 30 29 30 29 28 28 28 29 29 29 29 29 29 29 30
18 17 17 17 18 18 19 19 19 20 21 20 20 21 23 25 26 27 27 27 29 28 29 30 30 30 31 32 32 32 32 32 32 31 31 31 30 30 30 31 30 31 31
19 19 20 20 20 20 20 21 22 23 24 25 26 26 27 29 29 29 29 30 31 32 32 33 33 34 34 34 34 34 35 35 35 35 35 34 34 33 34 33 33 32 32
23 24 24 24 25 25 26 27 28 29 31 32 33 33 33 32 34 34 34 34 35 36 36 36 36 36 36 36 37 37 38 38 38 37 38 37 37 36 37 36 35 36 35
28 28 29 29 30 31 31 32 33 33 34 36 37 35 35 37 39 38 39 39 40 40 40 40 40 39 39 39 39 40 41 41 41 41 41 40 39 40 38 38 37 37 37
29 29 29 31 31 32 32 33 34 35 36 38 39 37 38 39 41 42 41 41 40 39 39 39 39 37 37 37 37 39 40 41 41 41 42 42 41 41 41 41 41 40 39
31 33 33 34 34 35 35 36 37 38 39 40 41 43 43 43 43 42 40 38 36 35 34 33 33 34 33 32 32 33 35 37 36 36 38 40 41 41 41 42 42 41 40
35 37 38 39 39 39 40 41 40 40 41 42 41 41 40 39 38 37 36 35 33 32 31 31 30 30 30 30 29 28 28 28 27 27 28 31 32 33 34 36 37 39 40
31 32 34 36 37 38 39 39 38 37 37 36 36 36 35 33 33 33 32 31 30 30 30 29 29 28 27 27 27 26 26 25 24 23 23 24 24 24 24 24 25 25 28
22 23 24 26 27 28 30 32 32 31 31 31 31 31 31 31 31 30 29 29 28 28 28 28 28 27 27 27 27 27 26 26 25 24 22 22 23 22 21 21 20 20 20
Wind_Direction
250 247 246 246 246 248 250 252 255 257 257 256 258 261 266 271 275 279 282 285 286 287 290 292 293 294 292 292 294 295 296 298 298 304 311 321 323 325 324 326 326 324 328
251 248 246 243 243 246 250 253 255 257 258 257 258 262 267 271 275 278 281 283 284 285 288 290 290 291 289 289 289 290 292 294 295 298 304 307 309 315 315 315 319 321 321
249 244 243 241 241 244 249 253 255 256 258 262 263 264 267 271 275 278 281 282 283 285 287 287 288 288 287 286 287 288 290 292 293 296 300 307 312 316 315 316 316 320 319
248 240 237 239 241 246 250 253 256 258 260 263 266 268 270 273 276 278 281 282 284 286 287 287 287 286 285 284 285 286 289 290 292 294 298 302 306 313 312 313 312 317 317
245 243 241 242 245 247 251 254 257 260 263 267 270 273 275 276 278 279 281 282 284 285 286 286 286 285 284 284 284 285 286 287 289 292 294 298 301 305 307 313 312 312 312
253 250 248 247 249 252 256 257 259 263 266 268 272 275 276 279 280 281 282 283 285 285 285 286 286 285 284 282 282 283 284 284 286 289 291 293 297 302 303 307 308 308 307
258 256 256 255 255 256 257 259 262 265 269 271 274 277 278 279 281 283 283 284 284 286 286 287 287 285 284 283 282 283 283 284 285 287 285 289 294 299 302 302 303 304 303
272 261 261 259 258 260 262 264 268 271 272 274 276 278 280 281 281 283 283 285 287 286 286 286 287 287 284 284 284 283 284 285 286 285 283 286 290 294 296 299 299 300 301
274 270 264 264 263 264 266 269 273 274 275 279 282 282 283 285 285 285 284 287 286 286 286 285 285 285 284 283 284 284 285 285 287 284 284 286 289 291 294 295 294 296 298
278 273 273 274 278 275 274 275 282 284 286 287 289 289 289 290 289 288 289 288 288 288 288 288 286 285 285 283 283 285 285 286 286 286 285 286 288 289 288 288 291 292 295
287 289 284 278 285 285 284 287 287 287 290 290 291 292 294 293 292 290 288 289 288 289 289 289 290 289 288 286 284 284 285 288 286 285 286 288 288 289 288 288 287 288 290
287 285 289 288 290 291 293 296 295 292 293 294 296 297 297 297 295 295 293 290 292 292 291 294 294 293 292 292 289 288 287 286 286 285 285 286 288 288 289 289 289 288 288
294 291 290 291 290 292 291 291 294 297 298 299 302 303 303 305 305 303 304 301 302 300 300 300 299 298 297 297 295 294 294 291 287 287 287 289 290 292 294 294 293 293 292
295 296 295 293 294 297 297 297 297 297 298 300 303 305 309 309 309 309 308 308 308 308 306 304 303 302 301 299 297 295 294 292 291 291 291 294 296 296 295 295 294 294 294
301 299 299 298 296 296 297 298 300 304 306 305 306 308 309 308 310 313 312 310 308 308 308 305 302 301 301 301 301 300 299 297 292 292 293 294 295 296 295 296 295 294 292
304 303 303 302 301 299 299 301 305 305 308 309 309 311 310 310 311 312 310 307 307 307 309 306 303 302 301 301 301 301 300 300 301 299 297 296 297 298 298 297 297 296 294
312 309 306 304 303 301 302 302 298 308 312 312 311 310 309 308 308 307 306 304 303 303 301 301 300 300 300 300 300 301 301 302 302 300 299 298 297 297 297 296 297 296 295
306 304 303 302 300 300 299 299 301 300 299 303 307 307 306 305 305 304 303 302 301 302 301 300 300 301 300 300 300 299 299 300 299 298 297 296 295 295 295 294 294 293 293
304 301 298 298 297 296 296 296 296 296 296 297 299 301 303 303 303 302 301 300 301 300 299 299 299 299 298 299 298 297 297 297 297 295 294 293 292 291 291 291 291 291 291
299 297 295 294 292 291 291 291 291 291 291 293 294 297 300 301 299 300 301 301 300 299 299 298 298 298 298 297 296 296 295 294 293 293 292 291 290 288 288 288 288 287 287
296 295 294 292 290 289 289 289 289 290 290 292 293 297 298 298 297 299 299 298 298 298 297 297 297 296 296 296 295 294 293 293 292 291 290 289 288 286 285 285 285 285 285
296 295 293 291 291 291 290 290 291 291 292 292 294 296 298 297 297 297 298 298 298 298 298 297 297 297 298 297 297 296 295 294 293 292 290 288 287 285 284 282 282 281 281
295 293 292 291 291 291 290 291 291 291 292 293 294 295 296 296 297 297 299 300 300 301 301 300 300 301 301 301 302 302 301 300 300 298 294 291 288 285 283 281 279 278 278
294 292 290 289 289 289 289 290 291 292 293 294 295 296 297 298 299 299 300 301 301 301 302 301 301 302 303 304 305 306 308 310 311 309 306 301 297 293 289 285 282 279 277
302 300 296 294 292 291 291 291 292 294 294 295 296 297 299 300 301 301 301 302 303 303 303 303 303 303 304 305 306 308 310 312 314 315 314 311 308 305 302 298 294 288 283
312 309 307 305 303 300 298 297 297 297 298 298 299 299 300 301 302 303 304 304 304 305 304 304 304 304 304 304 305 306 307 308 309 311 312 312 310 309 307 306 303 299 294